Location: Harburg
(48.7667°N, 10.6667°E)
Time: 06:13:12
(UTC+00:00)

Cosmos 494 Rocket - Pass Details

Date: 18 September 2020
Orbit: 741 x 771 km, 74.1° (Epoch: 22 October)

Event Time Altitude Azimuth Distance (km) Brightness Sun altitude
Rises 19:56:53 0° 334° (NNW) 3,245 8.2 -24.6°
Reaches altitude 10° 19:59:18 10° 330° (NNW) 2,318 7.3 -25.0°
Maximum altitude 20:04:27 58° 253° (WSW) 894 4.4 -25.7°
Enters shadow 20:05:35 47° 206° (SSW) 1,009 4.4 -25.8°
